[[{"header":{"parameterUnit":"m.s-1","parameterCategory":1,"la1":30.2991,"la2":30.254,"lo1":-89.0895,"lo2":-89.0444,"dy":0.0017,"dx":0.0017,"nx":28,"ny":28,"refTime":"2024-07-20T03:00:00:Z","depth":0,"parameterNumber":2,"parameterNumberName":"U-component_of_WINDS"},"data":[0,0,0,0,0,0,0,0,0,0,0,0,0,0,0,0,0,0,0,0,0,0,0,0,0,0,0,0,0,0,0,0,0,0,0,0,0,0,0,0,0,0,0,0,0,0,0,0,0,0,0,0,0,0,0,0,0,0,2.0439,2.0439,0,2.0477,2.0477,2.0478,2.0462,2.0461,2.046,2.0459,2.0503,2.0505,2.0507,0,0,0,0,0,0,0,0,0,0,0,0,0,2.0358,2.0359,2.0439,2.0439,2.044,2.0477,2.0477,2.0478,2.0462,2.0461,2.0459,2.0458,2.0502,2.0505,2.0507,0,0,0,0,0,0,0,0,0,0,0,0,0,2.0394,2.036,2.0439,2.0436,2.0436,2.0477,2.0477,2.0478,2.0462,2.0461,2.0459,2.0458,2.0501,2.0504,2.0507,2.0554,0,0,2.0517,2.0518,0,0,0,0,0,0,0,0,2.0392,2.0397,2.0436,2.0436,2.0437,2.0463,2.0465,2.0504,2.0462,2.0452,2.0459,2.0457,2.0491,2.0495,2.0505,2.0556,2.0558,2.0517,2.0519,2.052,2.0521,0,0,0,0,0,0,0,2.039,2.0395,2.0454,2.0437,2.0437,2.0435,2.0438,2.0472,2.0479,2.0453,2.0452,2.0456,2.0491,2.0502,2.0506,2.0559,2.0517,2.052,2.0522,2.0523,2.0651,2.0652,0,0,0,0,0,0,2.0386,2.0393,2.0453,2.0455,2.041,2.0437,2.0441,2.0456,2.0479,2.0481,2.0458,2.0456,2.0498,2.0503,2.0508,2.0564,2.052,2.0523,2.0525,2.0649,2.0651,2.0653,0,0,0,0,0,0,2.0385,2.0392,2.0451,2.0424,2.0431,2.044,2.0457,2.0457,2.0469,2.0482,2.0484,2.0467,2.0497,2.0503,2.0542,2.0565,2.0524,2.0527,2.0647,2.065,2.0652,2.0677,0,0,0,0,0,0,2.0382,2.0391,2.0408,2.0424,2.0433,2.0484,2.0458,2.0459,2.0473,2.0471,2.0492,2.0494,2.0496,2.0538,2.0545,2.0569,2.053,2.0645,2.0648,2.0651,2.0674,2.068,2.0685,0,0,0,0,0,2.038,2.0415,2.0409,2.0416,2.0454,2.0485,2.049,2.0491,2.0475,2.0493,2.0502,2.0493,2.0561,2.0542,2.055,2.0575,2.0644,2.0647,2.0651,2.0672,2.0679,2.0685,0,0,0,0,0,0,2.0403,2.0417,2.0411,2.0452,2.0467,2.0483,2.0505,2.0498,2.052,2.0517,2.0518,2.0523,2.0563,2.0573,2.0551,2.0622,2.06,2.0606,2.0614,2.062,2.0626,2.0623,2.0532,0,0,0,0,0,2.0412,2.0435,2.0447,2.0482,2.049,2.0496,2.051,2.0509,2.0526,2.0533,2.0544,2.0562,2.0588,2.0605,2.0629,2.0675,2.068,2.0697,2.0702,2.0706,2.0711,2.0737,2.0745,2.0664,2.0664,2.0664,0,0,2.0433,2.0444,2.0458,2.0487,2.0499,2.0524,2.0502,2.053,2.0549,2.0538,2.0574,2.0584,2.0604,2.0647,2.0667,2.0657,2.0734,2.0711,2.0714,2.0717,2.0741,2.0749,2.0756,2.0666,2.0666,2.0666,0,0,2.0484,2.0494,2.0524,2.0536,2.0553,2.0557,2.0564,2.0581,2.0586,2.0622,2.0614,2.0638,2.0682,2.0697,2.071,2.0766,2.0759,2.0774,2.0802,2.0827,2.0833,2.0839,2.0859,2.0867,2.0778,2.0778,2.0778,0,2.0508,2.0544,2.0541,2.0569,2.0582,2.0571,2.0603,2.0615,2.0641,2.0651,2.0639,2.0693,2.0706,2.0753,2.0766,2.0777,2.0786,2.0772,2.0832,2.0838,2.0843,2.0863,2.087,2.078,2.078,2.078,2.078,0,2.0573,2.0598,2.0621,2.0643,2.0659,2.0689,2.0692,2.0709,2.0707,2.0712,2.075,2.0765,2.0792,2.0803,2.0801,2.085,2.0843,2.0831,2.081,2.0853,2.0871,2.0878,2.0782,2.0782,2.0781,2.0781,0,0,2.064,2.066,2.0668,2.0678,2.0696,2.0717,2.0747,2.0771,2.0786,2.0804,2.083,2.0866,2.0856,2.0871,2.0871,2.0893,2.0937,2.0879,2.088,2.089,2.0991,2.1,2.1008,2.0932,2.0934,2.0935,2.099,0,2.0692,2.0742,2.074,2.0788,2.0812,2.0801,2.0827,2.0842,2.0848,2.087,2.0877,2.0903,2.0887,2.0896,2.0918,2.0927,2.0957,2.0923,2.0958,2.0959,2.0953,2.1018,2.1027,2.1078,2.0997,2.0998,2.0999,0,2.076,2.0778,2.0827,2.0841,2.0851,2.0874,2.0897,2.0918,2.0935,2.0938,2.0954,2.095,2.0982,2.096,2.1004,2.0981,2.0995,2.1002,2.1004,2.1007,2.0982,2.1024,2.1095,2.1102,2.101,2.1009,2.1008,0,2.0804,2.0841,2.0875,2.0884,2.0902,2.0918,2.0927,2.0942,2.0957,2.0977,2.0987,2.1011,2.1025,2.1045,2.1048,2.1031,2.1093,2.1071,2.1098,2.1098,2.1112,2.1111,2.1186,2.112,2.112,2.112,2.112,0,2.0863,2.0894,2.0895,2.0916,2.0951,2.0949,2.0984,2.0991,2.1005,2.1028,2.1021,2.1044,2.1047,2.1071,2.1074,2.1111,2.1117,2.1121,2.1122,2.1122,2.1122,2.1132,2.1129,2.1122,2.1121,2.1121,2.1121,0,2.0919,2.0921,2.0957,2.097,2.0974,2.0999,2.1011,2.1032,2.1037,2.1067,2.1074,2.1082,2.1109,2.1115,2.1148,2.115,2.1194,2.1191,2.1187,2.1187,2.1214,2.1212,2.1299,2.131,2.1236,2.1237,2.1238,0,2.0956,2.0979,2.0994,2.1009,2.1017,2.1041,2.1055,2.1055,2.1071,2.1091,2.111,2.1136,2.1158,2.1202,2.1213,2.1238,2.1236,2.1265,2.124,2.1239,2.1237,2.1235,2.1238,2.127,2.127,2.1271,2.1272,0,2.1023,2.1023,2.1043,2.1064,2.1081,2.1097,2.1113,2.1126,2.1128,2.1146,2.1173,2.1189,2.1222,2.1249,2.1274,2.1285,2.1279,2.1279,2.1287,2.1288,2.1285,2.1287,2.1201,2.1277,2.1277,2.1276,2.1276,2.1276,2.1071,2.1091,2.1105,2.1127,2.1139,2.1154,2.1174,2.118,2.1202,2.1227,2.1226,2.1256,2.1273,2.1306,2.1318,2.1343,2.1334,2.1345,2.1348,2.1351,2.1353,2.128,2.1347,2.1347,2.1347,2.1347,2.1347,0,2.1138,2.1146,2.1167,2.1188,2.1206,2.1197,2.1214,2.123,2.1256,2.1271,2.1292,2.1323,2.1349,2.136,2.1386,2.1404,2.1402,2.1411,2.141,2.1412,2.1359,2.135,2.1412,2.1412,2.1412,2.1412,2.1412,2.1412,2.1175,2.1208,2.1209,2.1248,2.1256,2.1284,2.1294,2.1309,2.1321,2.1355,2.1376,2.1382,2.1397,2.1423,2.1447,2.145,2.146,2.147,2.1472,2.1423,2.1416,2.141,2.1401,2.1472,2.1472,2.1523,2.1523,2.1523]},{"header":{"parameterUnit":"m.s-1","parameterCategory":1,"la1":30.2991,"la2":30.254,"lo1":-89.0895,"lo2":-89.0444,"dy":0.0017,"dx":0.0017,"nx":28,"ny":28,"refTime":"2024-07-20T03:00:00:Z","depth":0,"parameterNumber":3,"parameterNumberName":"V-component_of_WINDS"},"data":[0,0,0,0,0,0,0,0,0,0,0,0,0,0,0,0,0,0,0,0,0,0,0,0,0,0,0,0,0,0,0,0,0,0,0,0,0,0,0,0,0,0,0,0,0,0,0,0,0,0,0,0,0,0,0,0,0,0,1.2576,1.2574,0,1.2428,1.2426,1.2425,1.2335,1.2334,1.2334,1.2333,1.2177,1.2173,1.217,0,0,0,0,0,0,0,0,0,0,0,0,0,1.2777,1.2774,1.2576,1.2574,1.2572,1.2428,1.2426,1.2424,1.2335,1.2334,1.2334,1.2333,1.2178,1.2174,1.2169,0,0,0,0,0,0,0,0,0,0,0,0,0,1.2665,1.2773,1.2576,1.251,1.2503,1.2429,1.2426,1.2424,1.2335,1.2334,1.2334,1.2333,1.218,1.2174,1.2169,1.2147,0,0,1.2152,1.2149,0,0,0,0,0,0,0,0,1.2672,1.2658,1.2522,1.2515,1.2506,1.2399,1.244,1.2331,1.2335,1.2399,1.2333,1.2333,1.2251,1.224,1.2213,1.214,1.2133,1.2151,1.2148,1.2145,1.2144,0,0,0,0,0,0,0,1.268,1.2664,1.2517,1.252,1.251,1.2487,1.247,1.2419,1.233,1.2393,1.2386,1.237,1.2247,1.2219,1.2209,1.2131,1.2151,1.2146,1.2143,1.2141,1.2033,1.2033,0,0,0,0,0,0,1.2699,1.2671,1.2522,1.2513,1.2589,1.2484,1.2465,1.2434,1.233,1.2314,1.2371,1.2366,1.2229,1.2216,1.2203,1.2171,1.2145,1.214,1.2137,1.2032,1.2033,1.2033,0,0,0,0,0,0,1.2703,1.2686,1.2528,1.259,1.2568,1.2481,1.2447,1.2432,1.2404,1.2314,1.2297,1.2359,1.2228,1.2211,1.2162,1.2164,1.2137,1.2132,1.2031,1.2032,1.2033,1.2107,0,0,0,0,0,0,1.2709,1.2688,1.268,1.2591,1.2565,1.2491,1.2447,1.2429,1.2395,1.2388,1.2298,1.2283,1.2226,1.2171,1.2157,1.2156,1.2128,1.2031,1.2032,1.2033,1.2104,1.211,1.2116,0,0,0,0,0,1.2717,1.2705,1.268,1.2662,1.2553,1.2491,1.2476,1.2413,1.2395,1.2385,1.2328,1.2285,1.2167,1.2167,1.215,1.2148,1.203,1.2032,1.2033,1.2101,1.2109,1.2116,0,0,0,0,0,0,1.2795,1.2692,1.2663,1.2622,1.2567,1.2476,1.2462,1.2423,1.2369,1.2365,1.2287,1.2267,1.2226,1.2182,1.2184,1.2122,1.2094,1.2092,1.2152,1.2158,1.2164,1.2175,1.2123,0,0,0,0,0,1.2808,1.2768,1.2679,1.2652,1.2626,1.2549,1.252,1.2476,1.2414,1.2389,1.2328,1.2268,1.2218,1.2186,1.2134,1.2098,1.2077,1.2088,1.2094,1.2099,1.2098,1.2076,1.208,1.2037,1.2037,1.2037,0,0,1.2833,1.2772,1.2751,1.2666,1.2618,1.2577,1.2529,1.2488,1.2456,1.2382,1.2333,1.2286,1.2214,1.2172,1.2151,1.2134,1.2105,1.21,1.2105,1.2101,1.2077,1.2082,1.2085,1.2038,1.2038,1.2038,0,0,1.2858,1.2809,1.2781,1.2734,1.2662,1.2611,1.2605,1.2521,1.2487,1.2437,1.2381,1.2342,1.2256,1.2208,1.2172,1.2182,1.214,1.2167,1.2197,1.2176,1.218,1.2182,1.2186,1.2188,1.2166,1.2166,1.2166,0,1.2898,1.2836,1.2771,1.2733,1.2697,1.2631,1.2602,1.2559,1.2473,1.245,1.2433,1.2325,1.2272,1.2218,1.2221,1.2194,1.2183,1.2176,1.2185,1.2187,1.2188,1.219,1.2192,1.217,1.2169,1.2169,1.2169,0,1.2889,1.2846,1.2832,1.2754,1.2716,1.2683,1.2612,1.2582,1.2543,1.2494,1.2444,1.2378,1.2312,1.2296,1.2256,1.2237,1.2229,1.22,1.217,1.2197,1.2198,1.2198,1.2175,1.2174,1.2173,1.2172,0,0,1.2957,1.2845,1.2841,1.2805,1.2721,1.2686,1.265,1.2588,1.2564,1.2508,1.2475,1.2405,1.2378,1.2338,1.2291,1.2274,1.2286,1.2246,1.2243,1.2256,1.2261,1.2283,1.2286,1.2259,1.2259,1.2259,1.2267,0,1.2969,1.2903,1.2844,1.2799,1.2759,1.2696,1.2665,1.261,1.2564,1.2522,1.247,1.2422,1.239,1.2365,1.2345,1.2289,1.2286,1.2287,1.2226,1.2225,1.2246,1.2286,1.2309,1.232,1.2267,1.2267,1.2267,0,1.2975,1.2923,1.2875,1.2797,1.2778,1.2751,1.269,1.2651,1.2588,1.2555,1.2512,1.2464,1.2422,1.2398,1.2339,1.2342,1.2314,1.2283,1.2281,1.2272,1.2247,1.2278,1.2322,1.2324,1.2267,1.2267,1.2267,0,1.3029,1.2948,1.2908,1.288,1.2788,1.277,1.2731,1.2667,1.2634,1.2581,1.2558,1.25,1.2468,1.2424,1.2361,1.235,1.2309,1.228,1.228,1.2282,1.2273,1.2275,1.2313,1.2257,1.2257,1.2257,1.2257,0,1.3049,1.3022,1.2932,1.2908,1.2875,1.2808,1.2777,1.2732,1.2677,1.2642,1.2584,1.2552,1.2472,1.2431,1.2382,1.2341,1.2326,1.2298,1.2286,1.2303,1.2307,1.2283,1.228,1.2257,1.2257,1.2257,1.2257,0,1.3104,1.3043,1.2996,1.2914,1.2893,1.2873,1.2802,1.2775,1.2727,1.2684,1.267,1.2593,1.2542,1.2476,1.2402,1.2369,1.2334,1.2314,1.2356,1.2348,1.2353,1.2353,1.2377,1.2376,1.2321,1.2322,1.2322,0,1.312,1.3098,1.3015,1.2988,1.2952,1.2909,1.2876,1.281,1.2777,1.2705,1.2687,1.2632,1.2584,1.2504,1.2441,1.2385,1.2363,1.2376,1.2354,1.2374,1.2363,1.2365,1.2363,1.2381,1.2382,1.2382,1.2383,0,1.3155,1.3127,1.3082,1.3028,1.299,1.2943,1.2893,1.2875,1.2798,1.2764,1.2712,1.2676,1.2602,1.2548,1.2484,1.2442,1.24,1.2391,1.2388,1.2405,1.243,1.2417,1.237,1.239,1.2389,1.2389,1.2388,1.2388,1.319,1.3168,1.3107,1.306,1.3016,1.2972,1.2944,1.2893,1.2849,1.2786,1.2749,1.2698,1.2636,1.2547,1.2507,1.2465,1.2449,1.2445,1.2444,1.2444,1.245,1.2438,1.2453,1.2453,1.2453,1.2453,1.2452,0,1.3223,1.3181,1.3138,1.3072,1.3035,1.3001,1.2945,1.2915,1.2872,1.2819,1.2774,1.2714,1.2662,1.2596,1.2539,1.2518,1.2498,1.2506,1.2506,1.2497,1.2467,1.2475,1.2524,1.2524,1.2524,1.2524,1.2524,1.2524,1.3235,1.3196,1.3161,1.31,1.3058,1.3009,1.298,1.2939,1.2896,1.2833,1.279,1.2749,1.269,1.2629,1.2579,1.2561,1.2542,1.2556,1.2532,1.2505,1.2499,1.2493,1.25,1.2553,1.2553,1.2565,1.2566,1.2566]}]]